Flag for Sweden Weather past 2 weeks in Linköping, Sweden

Now
61 °F

Cool.


Feels Like: 61 °F
Forecast: 66 / 88 °F
Wind: 2 mph from Southeast

Location: Linkoping / Saab

Current Time: Aug 2, 2014 at 7:32:09 AM

Latest Report: Aug 2, 2014 at 6:50 AM


Visibility: N/A

Pressure: 30.01 "Hg

Humidity: 88%

Dew point: 57 °F

Location of LinköpingLocation

Historic Weather in Linköping — Graph

°F

Linköping temperature yesterday

Maximum temperature yesterday: 77 °F (at 3:50 PM)
Minimum temperature yesterday: 59 °F (at 2:50 AM)
Average temperature yesterday: 69 °F

Past Weeks' High & Low Weather Summary

 TemperatureHumidityPressure
High88 °F (Jul 24, 2:50 PM)100% (Jul 20, 5:50 AM)30.30 "Hg (Jul 20, 5:50 AM)
Low55 °F (Jul 19, 4:50 AM)27% (Jul 24, 1:20 PM)29.68 "Hg (Jul 30, 6:50 PM)
Average71 °F63%30.01 "Hg
* Reported Jul 18 6:20 AM — Aug 2 6:20 AM, Linköping, Weather by CustomWeather, © 2014

Note: Actual official high and low records may vary slightly from our data, if they occured in-between our weather recording intervals... More about our weather records

Advertising

Linköping weather history for previous 24 hours

 ConditionsComfort  
Time TempWeatherWind HumidityBarometerVisibility
6:20 AM
Aug 2
57 °FCool.1 mph94%30.01 "HgN/A
5:50 AM55 °FCool.No wind94%30.01 "HgN/A
5:20 AM57 °FCool.No wind94%30.01 "HgN/A
4:50 AM55 °FCool.3 mph94%30.01 "HgN/A
4:20 AM57 °FCool.1 mph94%30.01 "HgN/A
3:50 AM57 °FCool.5 mph94%30.01 "HgN/A
3:20 AM59 °FCool.1 mph82%30.01 "HgN/A
2:50 AM61 °FCool.1 mph83%30.01 "HgN/A
2:20 AM63 °FMild.1 mph77%30.01 "HgN/A
1:50 AM63 °FMild.3 mph77%30.01 "HgN/A
1:20 AM64 °FMild.3 mph73%29.98 "HgN/A
12:50 AM66 °FMild.5 mph68%29.98 "HgN/A
12:20 AM66 °FMild.6 mph68%29.98 "HgN/A
11:50 PM
Aug 1
68 °FMild.6 mph64%29.98 "HgN/A
11:20 PM68 °FMild.5 mph60%29.98 "HgN/A
10:50 PM68 °FMild.5 mph60%29.95 "HgN/A
10:20 PM70 °FMild.5 mph60%29.95 "HgN/A
9:50 PM72 °FMild.5 mph57%29.95 "HgN/A
9:20 PM72 °FPassing clouds.3 mph53%29.95 "HgN/A
8:50 PM73 °FBroken clouds.6 mph50%29.92 "HgN/A
8:20 PM75 °FScattered clouds.3 mph44%29.92 "HgN/A
7:50 PM75 °FScattered clouds.7 mph44%29.92 "HgN/A
7:20 PM77 °FBroken clouds.6 mph44%29.89 "HgN/A
6:50 PM77 °FPassing clouds.7 mph42%29.89 "HgN/A
6:20 PM75 °FMild.8 mph44%29.89 "HgN/A
5:50 PM77 °FWarm.7 mph42%29.89 "HgN/A
5:20 PM77 °FPassing clouds.8 mph42%29.89 "HgN/A
4:50 PM75 °FScattered clouds.7 mph41%29.89 "HgN/A
4:20 PM75 °FScattered clouds.7 mph44%29.89 "HgN/A
3:50 PM77 °FBroken clouds.8 mph42%29.89 "HgN/A
3:20 PM75 °FScattered clouds.9 mph44%29.89 "HgN/A
2:50 PM75 °FScattered clouds.9 mph47%29.89 "HgN/A
2:20 PM75 °FPassing clouds.9 mph47%29.89 "HgN/A
1:50 PM73 °FPassing clouds.7 mph50%29.89 "HgN/A
1:20 PM73 °FBroken clouds.7 mph53%29.89 "HgN/A
12:50 PM73 °FScattered clouds.10 mph50%29.89 "HgN/A
12:20 PM72 °FPassing clouds.10 mph53%29.89 "HgN/A
11:50 AM70 °FPassing clouds.10 mph57%29.89 "HgN/A
11:20 AM70 °FPassing clouds.9 mph60%29.89 "HgN/A
10:50 AM70 °FPassing clouds.12 mph60%29.89 "HgN/A
10:20 AM70 °FPassing clouds.10 mph57%29.89 "HgN/A
9:50 AM70 °FMild.13 mph60%29.86 "HgN/A
9:20 AM68 °FMild.10 mph64%29.86 "HgN/A
8:50 AM68 °FMild.12 mph64%29.86 "HgN/A
8:20 AM66 °FMild.10 mph68%29.86 "HgN/A
7:50 AM64 °FMild.8 mph73%29.86 "HgN/A
7:20 AM63 °FMild.7 mph77%29.86 "HgN/A
Weather by CustomWeather, © 2014

See weather overviewHow to use our weather pages